Weather History for Resolute, NU

Change the Weather History Date:

Wednesday, April 3, 2013

  Actual Average Record
Temperature  
Mean Temperature -18 °F -  
Max Temperature -11 °F -7 °F 71 °F (2003)
Min Temperature -25 °F -18 °F -34 °F (1997)
Degree Days  
Heating Degree Days 83    
Moisture  
Dew Point -25 °F    
Average Humidity 63    
Maximum Humidity 70    
Minimum Humidity 43    
Precipitation  
Precipitation 0.00 in - - ()
Sea Level Pressure  
Sea Level Pressure 30.31 in    
Wind  
Wind Speed 1 mph ()    
Max Wind Speed 20 mph    
Max Gust Speed -    
Visibility 14.7 miles    
Events Snow    
Averages and records for this station are not official NWS values.
T = Trace of Precipitation, MM = Missing Value Source: Averaged Metar Reports

Daily Weather History Graph

Daily Weather History Graph

Search for Another Location

Airport:

Trip Planner

Search our weather history database for the weather conditions in past years. The results will help you decide how hot, cold, wet, or windy it might be!

Date:

Astronomy

Apr. 03, 2013 Rise Set
Actual Time 5:47 AM CDT 9:02 PM CDT
Civil Twilight 4:09 AM CDT 10:42 PM CDT
Nautical Twilight Sun does not rise Sun does not rise
Astronomical Twilight Sun does not rise Sun does not rise
Moon No Moon Rise No Moon Set
Length of Visible Light 18h 32m
Length of Day
15h 15m
Last Quarter, 44% of the Moon is Illuminated
Apr 3
Last Quarter
Apr 10
New
Apr 18
First Quarter
Apr 25
Full
May 2
Last Quarter

Hourly Weather History & Observations

Time (CDT) Temp. Windchill Dew Point Humidity Pressure Visibility Wind Dir Wind Speed Gust Speed Precip Events Conditions
12:00 AM -23.8 °F - -32.8 °F 63% 30.16 in 15.0 mi Calm Calm - N/A   Partly Cloudy
1:00 AM -23 °F - -32 °F 43% 30.16 in 15 mi NW 2.3 mph - - Snow Snow
1:00 AM -23.8 °F - -32.8 °F 63% 30.16 in 15.0 mi NW 2.3 mph - N/A   Scattered Clouds
2:00 AM -23.8 °F - -32.8 °F 63% 30.17 in 15.0 mi Calm Calm - N/A   Partly Cloudy
3:00 AM -18.4 °F - -27.4 °F 63% 30.20 in 15.0 mi Calm Calm - N/A   Scattered Clouds
4:00 AM -18.4 °F - -27.4 °F 63% 30.21 in 15.0 mi Calm Calm - N/A   Mostly Cloudy
5:00 AM -16.6 °F - -25.6 °F 64% 30.23 in 15.0 mi Calm Calm - N/A   Mostly Cloudy
6:00 AM -18.4 °F - -27.4 °F 63% 30.25 in 15.0 mi Calm Calm - N/A   Mostly Cloudy
7:00 AM -17 °F - -26 °F 46% 30.25 in 15 mi Calm Calm - - Snow Snow
7:00 AM -16.6 °F - -25.6 °F 64% 30.25 in 15.0 mi Calm Calm - N/A   Mostly Cloudy
7:30 AM - - - N/A% - 15.0 mi Calm Calm - N/A   Partly Cloudy
8:00 AM -22.0 °F - -31.0 °F 63% 30.27 in 15.0 mi Calm Calm - N/A   Partly Cloudy
9:00 AM -20.2 °F - -29.2 °F 63% 30.29 in 15.0 mi Calm Calm - N/A   Scattered Clouds
10:00 AM -16.6 °F - -25.6 °F 64% 30.30 in 15.0 mi Calm Calm - N/A   Mostly Cloudy
11:00 AM -13.0 °F - -20.2 °F 70% 30.32 in 15.0 mi Calm Calm - N/A   Mostly Cloudy
12:00 PM -18.4 °F - -25.6 °F 70% 30.33 in 15.0 mi Calm Calm - N/A   Mostly Cloudy
1:00 PM -17 °F - -26 °F 48% 30.35 in 15 mi Calm Calm - - Snow Snow
1:00 PM -16.6 °F - -25.6 °F 64% 30.35 in 15.0 mi Calm Calm - N/A   Mostly Cloudy
2:00 PM -16.6 °F - -23.8 °F 70% 30.35 in 10.0 mi Calm Calm - N/A   Mostly Cloudy
3:00 PM -16.6 °F - -23.8 °F 70% 30.36 in 10.0 mi Calm Calm - N/A   Mostly Cloudy
4:00 PM -11.2 °F -23.0 °F -20.2 °F 64% 30.37 in 15.0 mi SE 4.6 mph - N/A   Mostly Cloudy
5:00 PM -13.0 °F -25.1 °F -20.2 °F 70% 30.38 in 15.0 mi SE 4.6 mph - N/A   Overcast
6:00 PM -13.0 °F - -20.2 °F 70% 30.39 in 15.0 mi Calm Calm - N/A   Overcast
7:00 PM -12 °F - -20 °F 53% 30.41 in 15 mi Calm Calm - - Snow Snow
7:00 PM -13.0 °F - -20.2 °F 70% 30.41 in 15.0 mi Calm Calm - N/A   Overcast
8:00 PM -13.0 °F - -22.0 °F 64% 30.42 in 15.0 mi Calm Calm - N/A   Mostly Cloudy
9:00 PM -14.8 °F - -23.8 °F 64% 30.42 in 15.0 mi Calm Calm - N/A   Mostly Cloudy
10:00 PM -13.0 °F - -20.2 °F 70% 30.42 in 15.0 mi Calm Calm - N/A   Mostly Cloudy
11:00 PM -16.6 °F -43.5 °F -25.6 °F 64% 30.41 in 15.0 mi ENE 19.6 mph - N/A Snow Low Drifting Snow